www.pogodaiklimat.ru

Погода и климат >> Архив погоды >> Иран >> Kerman


ПОГОДА в Kerman

  • Прогноз погоды в Kerman
  • Монитор погоды в Kerman
  • Климат города

АРХИВ ПОГОДЫ в Kerman

Время (UTC), дата Ветер
(напр.,м/с)
 
Видим.   Явления Облачность Т
(С)
Тd
(С)
f
(%)
Тe
(С)
Тes
(С)
Комфортность P
(гПа)
Po
(гПа)
Тmin
(С)
Tmax
(С)
R
(мм)
R24
(мм)
S
(см)
12 18.09 СЗ 2 20 км 1/1 1200 м
[Cu hum]
+34.9 -10.3 5 +30 +35 жарко 1003.9 823.8
15 18.09 СВ 5 20 км ясно +28.6 -7.3 9 +25 +25 комфорт 1005.9 824.4 +36.9
18 18.09 З 3 20 км ясно +22.0 -9.8 11 +20 +20 1005.6 826.5
21 18.09 В 3 20 км ясно +17.0 -10.7 14 +17 +17 1005.8 826.3
00 19.09 СЗ 1 20 км ясно +13.6 -10.3 18 +14 +14 1007.1 826.0
03 19.09 штиль 0 20 км ясно +14.8 -10.8 16 +15 +16 1010.3 827.8 +12.8
06 19.09 штиль 0 20 км ясно +29.7 -11.7 6 +26 +41 жарко 1008.5 828.5
09 19.09 С 4 20 км 1/1 1000 м
[Cu hum]
+31.9 -12.4 5 +27 +37 жарко 1006.5 826.1
12 19.09 С 6 15 км 1/1 1000 м
[Sc diur, vesp]
+33.0 -11.6 5 +28 +30 жарко 1005.5 824.6
15 19.09 СВ 5 15 км 1/1 1000 м
[Cu hum]
+28.2 -15.0 5 +24 +24 комфорт 1006.8 824.8 +33.3
18 19.09 СЗ 2 15 км ясно +23.9 -16.9 6 +21 +21 комфорт 1005.8 826.6
21 19.09 С 2 15 км ясно +21.8 -13.9 8 +20 +20 1005.6 826.0
00 20.09 В 2 15 км ясно +14.9 -12.9 13 +15 +15 1006.8 826.0
03 20.09 В 3 15 км ясно +14.4 -11.7 15 +14 +14 1010.2 827.4 +12.6
06 20.09 С 4 3000 м пыль ясно +26.6 -4.6 12 +24 +32 комфорт 1008.9 828.7
09 20.09 С 2 4000 м пыль ясно +30.2 -9.4 7 +26 +42 жарко 1006.2 826.7
12 20.09 С 8 5000 м пыль 3/1 1350 м
[Cu hum Ci fib]
+30.8 -11.3 6 +27 +27 жарко 1006.2 825.0
15 20.09 СВ 5 4000 м пыль 1/1 1350 м
[Sc diur, vesp]
+26.4 -4.6 13 +24 +24 комфорт 1008.6 825.6 +32.2
18 20.09 СВ 5 10 км ясно +24.5 -1.8 17 +23 +23 комфорт 1007.3 827.5
21 20.09 С 3 10 км ясно +21.3 -0.8 23 +21 +21 комфорт 1006.5 827.0
00 21.09 С 2 10 км ясно +18.2 -0.7 28 +19 +19 1007.5 827.2
03 21.09 ЮВ 3 10 км 3/0
[Ci sp]
+16.0 -0.8 32 +16 +16 1011.3 828.5 +15.9
06 21.09 СВ 2 10 км 4/1 1200 м
[Sc diur, vesp Ci sp]
+26.3 -1.8 16 +24 +34 комфорт 1009.0 828.9
09 21.09 СЗ 3 10 км 1/1 1200 м
[Sc diur, vesp]
+29.6 -5.1 10 +26 +38 жарко 1006.2 826.5
12 21.09 С 3 10 км 5/5 1200 м
[Sc diur, vesp]
+29.4 -5.2 10 +26 +28 жарко 1005.4 825.0
15 21.09 СВ 5 10 км 4/4 1200 м
[Sc diur, vesp]
+25.0 -1.7 17 +23 +23 комфорт 1008.3 825.6 +30.7
18 21.09 СВ 5 10 км 1/0
[Ci fib]
+22.8 -1.7 19 +22 +22 комфорт 1007.6 827.2
21 21.09 СВ 2 10 км ясно +17.6 -1.6 27 +18 +18 1007.7 827.0
00 22.09 Ю 2 10 км ясно +14.2 -1.6 34 +14 +14 1009.2 827.1
03 22.09 ЮВ 3 10 км ясно +14.0 -2.2 33 +13 +14 1012.5 828.5 +12.7
06 22.09 С 2 15 км ясно +26.2 -2.0 16 +24 +35 комфорт 1010.5 829.6
09 22.09 СЗ 5 15 км 1/1 1200 м
[Cu hum]
+29.0 -4.4 11 +26 +33 жарко 1009.1 827.7
12 22.09 С 7 15 км 1/1 1200 м
[Cu hum]
+29.6 -9.8 7 +26 +27 жарко 1008.1 826.1
15 22.09 СВ 6 10 км 1/1 1200 м
[Sc diur, vesp]
+25.5 -7.1 11 +23 +23 комфорт 1010.9 827.1 +30.2
18 22.09 СВ 3 10 км 1/1 1000 м
[Sc diur, vesp]
+22.9 -8.1 12 +21 +21 комфорт 1009.8 828.9
21 22.09 С 3 10 км ясно +20.2 -7.6 15 +20 +20 1010.3 828.7
00 23.09 Ю 2 10 км ясно +12.4 -6.0 27 +12 +12 1011.8 828.6
03 23.09 ЮВ 3 10 км ясно +13.0 -5.5 27 +12 +13 1013.9 829.4 +11.1
06 23.09 В 2 10 км ясно +26.8 -7.3 10 +24 +35 комфорт 1010.9 829.9
09 23.09 С 2 10 км 1/1 1000 м
[Cu hum]
+29.1 -14.4 5 +25 +39 комфорт 1008.7 827.8
12 23.09 С 5 10 км 1/1 1200 м
[Cu hum]
+30.8 -13.2 5 +26 +29 жарко 1008.5 826.2
15 23.09 С 5 10 км 1/1 1200 м
[Cu hum]
+25.6 -16.6 5 +22 +22 комфорт 1010.6 826.6 +31.6
18 23.09 ЮЗ 3 10 км 1/1 1200 м
[Sc diur, vesp]
+20.8 -9.0 13 +20 +20 1008.9 827.7
21 23.09 В 2 10 км ясно +17.8 -8.9 15 +18 +18 1007.9 827.2
00 24.09 ЮВ 2 10 км ясно +13.4 -8.7 21 +13 +13 1008.2 826.3
03 24.09 В 2 10 км 1/1 1000 м
[Cu hum]
+13.6 -8.3 21 +14 +14 1010.4 826.7 +11.9
06 24.09 Ю 4 10 км 1/1 1500 м
[Cu hum]
+28.8 -7.8 9 +25 +32 комфорт 1007.3 827.0
09 24.09 ЮЗ 4 10 км 3/3 1350 м
[Cu hum]
+31.9 -12.4 5 +27 +34 жарко 1004.4 824.6
12 24.09 З 6 10 км 8/8 1050 м
[Cb calv As op]
+30.6 -13.3 5 +26 +27 жарко 1004.5 823.0
15 24.09 ЮВ 4 10 км 8/8 1050 м
[Cb calv]
+26.7 -5.9 11 +24 +24 комфорт 1006.1 823.4 +33.5
18 24.09 ЮВ 2 10 км 1/1 1000 м
[Sc diur, vesp]
+22.4 -3.8 17 +21 +21 комфорт 1003.2 824.2
21 24.09 Ю 3 10 км ясно +19.0 -2.6 23 +19 +19 1001.6 823.7
00 25.09 В 3 10 км 1/1 1000 м
[Sc]
+18.2 -1.5 26 +18 +18 1002.5 823.1
03 25.09 З 2 10 км 1/1 1000 м
[Sc]
+18.0 -6.5 18 +19 +19 1007.0 825.4 +15.1
06 25.09 З 2 3000 м пыль ясно +23.2 -1.0 20 +22 +33 комфорт 1008.4 827.0
09 25.09 С 3 5000 м пыль ясно +27.0 -4.5 12 +24 +37 комфорт 1005.1 824.3

 

Местоположение метеостанции Kerman (Иран): широта 30.25 долгота 56.97 высота над уровнем моря 1754 м.

В архиве по умолчанию представлена погода в Kerman за последнюю неделю. Архивные данные за месяц целиком и за предыдущие месяцы, начиная с января 2011 года, Вы можете получить, выбрав интересующий диапазон дат из раскрывающегося списка и нажав кнопку "Ввод!".


*Определитесь, кто Вы:
робот инопланетянин человек

Внимание! Время в таблицах - всемирное. Для получения местного времени необходимо прибавить поправку, которая в Kerman равна 3.5 ч.

Смотрите также архив погоды в соседних городах и на ближайших метеорологических станциях:

Погода в Baft (Иран) (120 км)
Погода в Sirjan (Иран) (149 км)
Погода в Bam (Иран) (188 км)
Погода в Kahnuj (Иран) (263 км)
Погода в Yazd (Иран) (315 км)
Погода в Nehbandan (Иран) (325 км)
Погода в Bandarabbass (Иран) (342 км)
Погода в Fasa (Иран) (349 км)
Погода в Birjand (Иран) (360 км)
Погода в Tabas (Иран) (373 км)

Пояснения к столбцам:

Ветер - указаны скорость ветра в м/с - средняя за 10 мин, порывы в срок и между сроками (в фигурных скобках) и направление, откуда дует ветер: С - северный, СВ - северо-восточный, В - восточный, ЮВ - юго-восточный, Ю - южный, ЮЗ - юго-западный, З - западный, СЗ - северо-западный.
Видимость - горизонтальная дальность видимости в метрах или километрах. При видимости от 1 до 10 км при отсутствии осадков обычно наблюдается дымка, при ухудшении видимости до 1 км и менее - туман. В сухую погоду видимость может ухудшаться дымом, пылью или мглою.
Явления - указаны атмосферные явления, наблюдавшиеся в срок или в последний час перед сроком; фигурными скобками обозначены явления, наблюдавшиеся между сроками (за 1-3 часа до срока); квадратными скобками обозначены град или гололедные отложения с указанием их диаметра в мм.
Облачность - указаны через наклонную черту общая и нижняя облачность в баллах и высота нижней границы облаков в метрах; квадратными скобками обозначены формы облаков: Ci - перистые, Cs - перисто-слоистые, Cc - перисто-кучевые, Ac - высококучевые, As - высокослоистые, Sc - слоисто-кучевые, Ns - слоисто-дождевые, Cu - кучевые, Cb - кучево-дождевые. Подробнее классификацию облаков см. в Атласе облаков (PDF).
T - Температура воздуха - температура, измеренная на высоте 2 м над землей.
Td - Температура точки росы - температура, при понижении до которой содержащийся в воздухе водяной пар достигнет насыщения.
f - Относительная влажность воздуха - влажноcть воздуха, измеренная на высоте 2 м над землей.
Te - Эффективная температура - температура, которую ощущает одетый по сезону человек в тени. Характеристика душности погоды. При расчете учитывается влияние влажности воздуха и скорости ветра на теплоощущения человека.
Tes - Эффективная температура на солнце - температура, которую ощущает человек, с поправкой на солнечный нагрев. Характеристика знойности погоды. Зависит от высоты солнца над горизонтом, облачности и скорости ветра. Ночью, в пасмурную погоду, а также при ветре 12 м/с и более поправка равна нулю.
P - Атмосферное давление - приведенное к уровню моря атмосферное давление.
Po - Атмосферное давление - измеренное на уровне метеостанции атмосферное давление.
Tmin - Минимальная температура - минимум температуры воздуха на высоте 2 м над землей.
Tmax - Максимальная температура - максимум температуры воздуха на высоте 2 м над землей.
R - Количество осадков - Количество выпавших осадков за период времени, мм. При наведении курсора мыши на число - период времени, за который выпало указанное количество осадков.
R24 - Количество осадков - Количество выпавших осадков за 24 часа, мм.
S - Снежный покров - Высота снежного покрова, см. При наведении курсора мыши на число - состояние снежного покрова и степень покрытия местности в баллах.